Don Miguel Hidalgo Y Costilla International Airport
MMGL : rendu visible

Aérodrome :











RETROUVEZ-NOUS SUR...

 
LOGIN :

S'inscrire | Disclaimer

   EN    FR    IT 

 









Légende :    VFR   VFR Marginal   IFR   IFR Intensif   IFR Très Intensif
Visi : 
Plafond : 
>= 8 km
>= 3000ft
5 à 8 km
1000 à 3000 ft
1500m à 5 km
500 à 1000 ft
800 à 1500m
200 à 500 ft
< 800m
< 200 ft
Symboles :   Orages  Brouillard  Fortes neiges  Fortes précipitations  Vent > 20 kt






- Altitude de l'aérodrome : 5016 ft
- Code IATA : GDL


MMGL - Don Miguel Hidalgo Y Costilla International

DERNIER METAR :
  • 072347Z 15004KT 12SM FEW025CB 26/15 A3008 RMK SLP070 57016 904 8/300 OCNL DROPS

METARs EXPIRÉS :
  • 072243Z 07004KT 12SM BKN025TCU 28/13 A3009 RMK 8/200
  • 072150Z 04007KT 12SM BKN025 29/13 A3011 RMK 8/100 CI

TAF TAF MMGL
Valide du 08 à 00h jusqu'au 09 à 06h UTC


072305Z 0800/0906 07008KT P6SM BKN025 TX29/0822Z TN17/0812Z
BECMG 0802/0803 00000KT SCT025
FM081200 05005KT 6SM HZ SCT080
FM081800 07005KT P6SM SCT025 SCT080
BECMG 0821/0822 09012KT BKN025CB BKN080
PROB40 0822/0902 5SM TSRA
FM090300 07006KT P6SM SCT025 BKN080
FIR MMFR / Amérique du Nord



MET'MAP, la Météo Aéronautique d'un coup d'oeil ! - Copyright ORBIFLY Décembre 2007 - Disclaimer

ORBIFLY MET'MAP TEAM :

Programmation & Développement : Alexandra Zaïnal
Sur une idée originale de : Baudouin d'Aumeries
Assistance à la programmation : Marc-Olivier Méhu
Soutien technique & logistique : Manuel Goepfert

Contact : metmap@orbifly.com




SOURCES & CREDITS :

   NOAA       Earth
Advisory